OBJECT A, 100237

Orbit data source: Space-Track

You're viewing an uncataloged RSO

Recently launched and/or uncataloged RSOs may have evolving metadata. Metadata may include the following, but is not limited to: Owner, Manufacturer, Bus, Motor, and Mission.

OBJECT A, 100237 is a Chinese satellite in SSO that was launched on Wed, 05 Aug 2026 UTC launched from the Yellow Sea Launch Area, China (YSLA). Unknown objects in Earth's orbit typically refer to objects detected orbiting the Earth but have not yet been identified or cataloged. These objects could be anything from previously untracked satellites, spent rocket stages, debris from satellite collisions, or even natural meteoroids temporarily captured by Earth's gravity.

Loading next visibility...
Identifier
100237, 2026-178A
Orbit
SSO
Country
Flag of CNCN / PRC
Related business
None
Manufacturer
Unknown
Mission
Operational spacecraft
Bus & Motor
Unknown
Mass
Unknown
Launch date (UTC)
2026-08-05 (1 month ago)
Launch vehicle
Unknown
Launch site
Yellow Sea Launch Area, China (YSLA)
Object type
Unknown
Shape & HBR
Unknown
Radar Cross Section
Large (>1 m²)

Expand to show TLE details & history
Last TLE update: 5 hours ago

TLE from 5 hours ago
0 OBJECT A
1 A0237U 26178A   26249.63626473  .00000020  00000-0  24098-4 0  9995
2 A0237  98.5479 323.4190 0024868 199.3747 160.6493 14.30603827  4654
Epoch: 2026-09-06T15:16Z
TLE epoch observation values (Epoch: 2026-09-06T15:16:13.272Z)
Latitude
-0.00001°
Longitude
108.63516°
Altitude
809.474 km
Speed
7.44 km/s
True Right ascension
21h 33m 40s
True Declination
0° 00' 00"
Sunlit
Object was in full shadow at epoch
Visualization orbit readout
Latitude
Unknown
Longitude
Unknown
Altitude
Unknown
Speed
Unknown
Apparent Right ascension
Unknown
Apparent Declination
Unknown
Sunlit
N/A
Visualization observer readout
Local Sidereal Time
12:46:03
Azimuth
Unknown
Elevation
Unknown
Doppler factor
Unknown
Orbital elements
Apogee altitude
804.668 km
Perigee altitude
769.032 km
Semi-major axis
7,164.987 km
Eccentricity
0.00249
Inclination
98.5479°
RAAN
323.419°
Arg. of periapsis
199.3747°
True anomaly
160.74345°
Mean anomaly
160.6493°
Eccentric anomaly
160.6964°
Mean motion
3.57866 °/min
Orbital period
100.6 mins
BSTAR
0.000024098
Loading maneuver chart data...
Computing Atmospheric mass density...
Loading historical data...
Loading historical data...
Loading historical data...
Loading historical data...
Loading historical data...
Loading historical data...
Loading historical data...
Other satellites on launch #178 in the year 2026 (2026-08-05 UTC)

Documentation

Showing up to 5 results
|